Showing default

NAPA-1, 46320

Orbit data source: Space-Track

NAPA-1, 46320 is a payload satellite owned by RTAF (TH) in SSO that was launched on Thu, 03 Sep 2020 UTC via a VEGA launch vehicle from the French Guiana (FRGUI). Payload-class satellites include a variety of spacecraft equipped with specific instruments for various scientific and technological missions. These include communications satellites like Starlink; space stations such as the ISS; scientific satellites like the Hubble; Earth observation satellites from companies like Planet Labs, Umbra, and HawkEye 360; GPS; miniature CubeSats for education and research; and military/defense satellites.

Loading next visibility...
Identifier
46320, 2020-061BA
Orbit
SSO
Country
Flag of UnknownUnknown / THAI
Related business
Manufacturer
ISIS BV
Mission
Operational Defense Imaging
Bus & Motor
CUBESAT 6U, Unknown motor
Mass
10 kg wet, 10 kg dry
Launch date (UTC)
2020-09-03 (5 years ago)
Launch vehicle
VEGA
Launch site
French Guiana (FRGUI)
Object type
Payload
Rocket body
Debris
Shape & HBR
Box, Unknown HBR
Radar Cross Section
0.080 m², Medium (>0.1 m² and < 1m²)

Expand to show TLE details & history
Last TLE update: 17 hours ago

TLE from 17 hours ago
0 NAPA-1
1 46320U 20061BA  25287.95952434  .00030131  00000-0  63913-3 0  9992
2 46320  97.2859 353.2551 0001657 132.8436 227.2952 15.45009929283621
Epoch: 2025-10-14T23:01Z
TLE epoch observation values (Epoch: 2025-10-14T23:01:42.902Z)
Latitude
-0.0001°
Longitude
-15.91411°
Altitude
435.242 km
Speed
7.65 km/s
True Right ascension
23h 33m 01s
True Declination
0° 00' 00"
Sunlit
Object was in full shadow at epoch
Visualization orbit readout
Latitude
Unknown
Longitude
Unknown
Altitude
Unknown
Speed
Unknown
Apparent Right ascension
Unknown
Apparent Declination
Unknown
Sunlit
N/A
Visualization observer readout
Local Sidereal Time
10:42:22
Azimuth
Unknown
Elevation
Unknown
Doppler factor
Unknown
Orbital elements
Apogee altitude
429.404 km
Perigee altitude
427.148 km
Semi-major axis
6,806.413 km
Eccentricity
0.00017
Inclination
97.2859°
RAAN
353.2551°
Arg. of periapsis
132.8436°
True anomaly
227.28125°
Mean anomaly
227.2952°
Eccentric anomaly
227.28822°
Mean motion
3.86514 °/min
Orbital period
93.14 mins
BSTAR
0.00063913
Loading maneuver chart data...
Computing Atmospheric mass density...
Loading historical data...
Loading historical data...
Loading historical data...
Loading historical data...
Loading historical data...
Loading historical data...
Loading historical data...

Documentation

Showing up to 5 results
|